datetime,storage
1993-02-05,1119.99
1993-02-06,1177.69
1993-02-07,1237.0
1993-02-08,1299.81
1993-02-09,1382.5
1993-02-10,1444.5
1993-02-11,1521.51
1993-02-12,1593.79
1993-02-13,1655.31
1993-02-14,1718.61
1993-02-15,1776.59
1993-02-16,1821.0
1993-02-17,1877.79
1993-02-18,1940.61
1993-02-19,2004.59
1993-02-20,2012.5
1993-02-21,2024.34
1993-02-22,2036.18
1993-02-23,2046.48
1993-02-24,2052.0
1993-02-25,2063.21
1993-02-26,2071.22
1993-02-27,2074.38
1993-02-28,2076.8
1993-03-01,2080.01
1993-03-02,2086.41
1993-03-03,2091.22
1993-03-04,2092.78
1993-03-05,2094.38
1993-03-06,2095.98
1993-03-07,2098.41
1993-03-08,2100.79
1993-03-09,2103.21
1993-03-10,2104.81
1993-03-11,2107.2
1993-03-12,2109.62
1993-03-13,2115.2
1993-03-14,2120.79
1993-03-15,2126.41
1993-03-16,2131.22
1993-03-17,2141.01
1993-03-18,2156.58
1993-03-19,2173.8
1993-03-20,2191.06
1993-03-21,2209.92
1993-03-22,2226.59
1993-03-23,2242.55
1993-03-24,2261.04
1993-03-25,2284.55
1993-03-26,2354.0
1993-03-27,2469.0
1993-03-28,2580.62
1993-03-29,2681.56
1993-03-30,2666.66
1993-03-31,2617.49
1993-04-01,2589.59
1993-04-02,2634.59
1993-04-03,2626.5
1993-04-04,2622.02
1993-04-05,2617.49
1993-04-06,2846.53
1993-04-07,3039.89
1993-04-08,3139.01
1993-04-09,3216.01
1993-04-10,3247.42
1993-04-11,3244.33
1993-04-12,3235.17
1993-04-13,3514.62
1993-04-14,3827.14
1993-04-15,4073.74
1993-04-16,4314.63
1993-04-17,4545.33
1993-04-18,4812.37
1993-04-19,5140.75
1993-04-20,5177.19
1993-04-21,5380.13
1993-04-22,5511.63
1993-04-23,5797.57
1993-04-24,6234.85
1993-04-25,6496.19
1993-04-26,6704.2
1993-04-27,7000.16
1993-04-28,7333.91
1993-04-29,7565.26
1993-04-30,7861.0
1993-05-01,8106.05
1993-05-02,8272.67
1993-05-03,8466.17
1993-05-04,8904.45
1993-05-05,9379.42
1993-05-06,9709.89
1993-05-07,10141.59
1993-05-08,10603.86
1993-05-09,10786.44
1993-05-10,10950.82
1993-05-11,11257.42
1993-05-12,11912.63
1993-05-13,12609.97
1993-05-14,13264.62
1993-05-15,13896.17
1993-05-16,14075.17
1993-05-17,14733.37
1993-05-18,15438.43
1993-05-19,16299.73
1993-05-20,17207.48
1993-05-21,18290.77
1993-05-22,20070.55
1993-05-23,22001.57
1993-05-24,23304.3
1993-05-25,25018.02
1993-05-26,26977.88
1993-05-27,28606.12
1993-05-28,29717.41
1993-05-29,30033.64
1993-05-30,31330.0
1993-05-31,33155.91
1993-06-01,34680.05
1993-06-02,36094.46
1993-06-03,37022.92
1993-06-04,37264.84
1993-06-05,37598.48
1993-06-06,38131.84
1993-06-07,37766.79
1993-06-08,38806.89
1993-06-09,38957.27
1993-06-10,38986.18
1993-06-11,39210.04
1993-06-12,39878.3
1993-06-13,40904.51
1993-06-14,41950.53
1993-06-15,42708.46
1993-06-16,43773.66
1993-06-17,44558.17
1993-06-18,45525.57
1993-06-19,45257.41
1993-06-20,45059.29
1993-06-21,45117.93
1993-06-22,45152.66
1993-06-23,45001.21
1993-06-24,44639.69
1993-06-25,44545.21
1993-06-26,45246.03
1993-06-27,44954.53
1993-06-28,44674.41
1993-06-29,44584.29
1993-06-30,44580.04
1993-07-01,44977.87
1993-07-02,44954.53
1993-07-03,44584.29
1993-07-04,44575.58
1993-07-05,44767.79
1993-07-06,45047.9
1993-07-07,44942.57
1993-07-08,44884.5
1993-07-09,44849.77
1993-07-10,44931.19
1993-07-11,44884.5
1993-07-12,44873.11
1993-07-13,44814.47
1993-07-14,44733.06
1993-07-15,44616.34
1993-07-16,44545.21
1993-07-17,44566.88
1993-07-18,44756.4
1993-07-19,44873.11
1993-07-20,44989.26
1993-07-21,45035.95
1993-07-22,45035.95
1993-07-23,45082.63
1993-07-24,45766.96
1993-07-25,46044.33
1993-07-26,45799.59
1993-07-27,45572.26
1993-07-28,45456.11
1993-07-29,45246.03
1993-07-30,44942.57
1993-07-31,44814.47
1993-08-01,44733.06
1993-08-02,44686.37
1993-08-03,44375.5
1993-08-04,44989.26
1993-08-05,44861.16
1993-08-06,44686.37
1993-08-07,44562.62
1993-08-08,44519.09
1993-08-09,44505.91
1993-08-10,44471.29
1993-08-11,44462.59
1993-08-12,44440.71
1993-08-13,44401.62
1993-08-14,44371.25
1993-08-15,44340.67
1993-08-16,44323.25
1993-08-17,44305.83
1993-08-18,44297.12
1993-08-19,44288.41
1993-08-20,44310.29
1993-08-21,44319.0
1993-08-22,44331.96
1993-08-23,44349.38
1993-08-24,44349.38
1993-08-25,44349.38
1993-08-26,44327.71
1993-08-27,44331.96
1993-08-28,44323.25
1993-08-29,44319.0
1993-08-30,44323.25
1993-08-31,44345.12
1993-09-01,44327.71
1993-09-02,44319.0
1993-09-03,44297.12
1993-09-04,44288.41
1993-09-05,44288.41
1993-09-06,44288.41
1993-09-07,44279.71
1993-09-08,44275.46
1993-09-09,44266.75
1993-09-10,44262.5
1993-09-11,44266.75
1993-09-12,44266.75
1993-09-13,44262.5
1993-09-14,44266.75
1993-09-15,44271.0
1993-09-16,44275.46
1993-09-17,44301.59
1993-09-18,44331.96
1993-09-19,44353.84
1993-09-20,44358.08
1993-09-21,44371.25
1993-09-22,44392.92
1993-09-23,44397.16
1993-09-24,44405.88
1993-09-25,44427.75
1993-09-26,44436.46
1993-09-27,44445.17
1993-09-28,44462.59
1993-09-29,44497.21
1993-09-30,44540.75
1993-10-01,44558.17
1993-10-02,44558.17
1993-10-03,44604.39
1993-10-04,44651.07
1993-10-05,44697.76
1993-10-06,44721.1
1993-10-07,44767.79
1993-10-08,44895.89
1993-10-09,45047.9
1993-10-10,45117.93
1993-10-11,45187.39
1993-10-12,45397.47
1993-10-13,45572.26
1993-10-14,45700.93
1993-10-15,45799.59
1993-10-16,45905.84
1993-10-17,46019.66
1993-10-18,46117.55
1993-10-19,46215.45
1993-10-20,46272.36
1993-10-21,46239.72
1993-10-22,46239.72
1993-10-23,46313.34
1993-10-24,46370.25
1993-10-25,46419.2
1993-10-26,46476.11
1993-10-27,46517.09
1993-10-28,46549.73
1993-10-29,46582.07
1993-10-30,46615.14
1993-10-31,46640.14
1993-11-01,46681.29
1993-11-02,46730.89
1993-11-03,46763.96
1993-11-04,46846.64
1993-11-05,46912.79
1993-11-06,46953.93
1993-11-07,46962.4
1993-11-08,46995.07
1993-11-09,46995.07
1993-11-10,47086.22
1993-11-11,47160.43
1993-11-12,47259.64
1993-11-13,47366.93
1993-11-14,47458.44
1993-11-15,47525.47
1993-11-16,47592.49
1993-11-17,47693.03
1993-11-18,47784.99
1993-11-19,47868.77
1993-11-20,47927.21
1993-11-21,48002.82
1993-11-22,48178.56
1993-11-23,48364.27
1993-11-24,48483.24
1993-11-25,48610.51
1993-11-26,48669.79
1993-11-27,48712.49
1993-11-28,48763.48
1993-11-29,48882.04
1993-11-30,48992.73
1993-12-01,49128.93
1993-12-02,49241.31
1993-12-03,49353.27
1993-12-04,49456.81
1993-12-05,49611.7
1993-12-06,49724.08
1993-12-07,49792.69
1993-12-08,49930.74
1993-12-09,50096.85
1993-12-10,50210.63
1993-12-11,50333.39
1993-12-12,50447.17
1993-12-13,50622.54
1993-12-14,50718.78
1993-12-15,50868.33
1993-12-16,51037.81
1993-12-17,51171.22
1993-12-18,51295.51
1993-12-19,51402.41
1993-12-20,51473.68
1993-12-21,51535.83
1993-12-22,51598.41
1993-12-23,51651.86
1993-12-24,51750.16
1993-12-25,51876.7
1993-12-26,52002.8
1993-12-27,52120.53
1993-12-28,52228.55
1993-12-29,52373.17
1993-12-30,52499.71
1993-12-31,52580.84
1994-01-01,52699.48
1994-01-02,52828.12
1994-01-03,52947.36
1994-01-04,53057.62
1994-01-05,53195.23
1994-01-06,53360.63
1994-01-07,53461.49
1994-01-08,53544.09
1994-01-09,53618.64
1994-01-10,53832.76
1994-01-11,53954.13
1994-01-12,54037.78
1994-01-13,54158.7
1994-01-14,54270.53
1994-01-15,54400.99
1994-01-16,54503.84
1994-01-17,54607.66
1994-01-18,54730.4
1994-01-19,54843.91
1994-01-20,54947.73
1994-01-21,55023.4
1994-01-22,55099.08
1994-01-23,55231.5
1994-01-24,55373.16
1994-01-25,55506.99
1994-01-26,55602.99
1994-01-27,55717.71
1994-01-28,55852.1
1994-01-29,55938.26
1994-01-30,56024.89
1994-01-31,56091.85
1994-02-01,56168.65
1994-02-02,56235.61
1994-02-03,56312.4
1994-02-04,56370.0
1994-02-05,56506.21
1994-02-06,56603.51
1994-02-07,56690.84
1994-02-08,56914.38
1994-02-09,57070.05
1994-02-10,57166.87
1994-02-11,57322.54
1994-02-12,57489.8
1994-02-13,57559.13
1994-02-14,57647.72
1994-02-15,57775.78
1994-02-16,57933.7
1994-02-17,58071.87
1994-02-18,58189.82
1994-02-19,58368.04
1994-02-20,58537.96
1994-02-21,58658.08
1994-02-22,58787.96
1994-02-23,58888.06
1994-02-24,59008.18
1994-02-25,59127.8
1994-02-26,59238.16
1994-02-27,59409.2
1994-02-28,59561.2
1994-03-01,59692.9
1994-03-02,59804.8
1994-03-03,59977.1
1994-03-04,60149.4
1994-03-05,60291.5
1994-03-06,60516.51
1994-03-07,60691.02
1994-03-08,60876.06
1994-03-09,61050.57
1994-03-10,61225.08
1994-03-11,61358.97
1994-03-12,61556.56
1994-03-13,61806.14
1994-03-14,61983.03
1994-03-15,62274.79
1994-03-16,62473.36
1994-03-17,62694.87
1994-03-18,62990.04
1994-03-19,63211.55
1994-03-20,63679.01
1994-03-21,64042.3
1994-03-22,64298.59
1994-03-23,64631.3
1994-03-24,64848.11
1994-03-25,65032.14
1994-03-26,65324.57
1994-03-27,65508.59
1994-03-28,65704.77
1994-03-29,65934.88
1994-03-30,66110.41
1994-03-31,66340.53
1994-04-01,66537.47
1994-04-02,66846.33
1994-04-03,67079.39
1994-04-04,67345.51
1994-04-05,67656.61
1994-04-06,67901.48
1994-04-07,68182.48
1994-04-08,68385.0
1994-04-09,68587.52
1994-04-10,68879.49
1994-04-11,69117.44
1994-04-12,69378.93
1994-04-13,69617.66
1994-04-14,69890.8
1994-04-15,70164.44
1994-04-16,70510.38
1994-04-17,70821.44
1994-04-18,71305.97
1994-04-19,71818.5
1994-04-20,72133.07
1994-04-21,72978.5
1994-04-22,73072.25
1994-04-23,73567.5
1994-04-24,74258.8
1994-04-25,74772.0
1994-04-26,75085.54
1994-04-27,75254.68
1994-04-28,75399.66
1994-04-29,75604.76
1994-04-30,75665.46
1994-05-01,75544.65
1994-05-02,75387.29
1994-05-03,75242.9
1994-05-04,75049.59
1994-05-05,74868.66
1994-05-06,74832.12
1994-05-07,75073.75
1994-05-08,75653.09
1994-05-09,76174.39
1994-05-10,76894.0
1994-05-11,77455.78
1994-05-12,78299.58
1994-05-13,79303.55
1994-05-14,80424.66
1994-05-15,81716.73
1994-05-16,82489.85
1994-05-17,83470.58
1994-05-18,83873.56
1994-05-19,83899.65
1994-05-20,82146.0
1994-05-21,82395.0
1994-05-22,82290.0
1994-05-23,82303.0
1994-05-24,82603.0
1994-05-25,83010.0
1994-05-26,83220.0
1994-05-27,83312.0
1994-05-28,83418.0
1994-05-29,84224.0
1994-05-30,84676.0
1994-05-31,85209.0
1994-06-01,85222.0
1994-06-02,85155.0
1994-06-03,84995.0
1994-06-04,84875.0
1994-06-05,84835.0
1994-06-06,84689.0
1994-06-07,84622.0
1994-06-08,84622.0
1994-06-09,84596.0
1994-06-10,84529.0
1994-06-11,84422.0
1994-06-12,84356.0
1994-06-13,84264.0
1994-06-14,84224.0
1994-06-15,84131.0
1994-06-16,84091.0
1994-06-17,83972.0
1994-06-18,83919.0
1994-06-19,83893.0
1994-06-20,83866.0
1994-06-21,83840.0
1994-06-22,83813.0
1994-06-23,83747.0
1994-06-24,83694.0
1994-06-25,83615.0
1994-06-26,83536.0
1994-06-27,83457.0
1994-06-28,83418.0
1994-06-29,83365.0
1994-06-30,83312.0
1994-07-01,83299.0
1994-07-02,83338.0
1994-07-03,83444.0
1994-07-04,83457.0
1994-07-05,83457.0
1994-07-06,83457.0
1994-07-07,83365.0
1994-07-08,83365.0
1994-07-09,83365.0
1994-07-10,83378.0
1994-07-11,83365.0
1994-07-12,83338.0
1994-07-13,83326.0
1994-07-14,83299.0
1994-07-15,83259.0
1994-07-16,83233.0
1994-07-17,83194.0
1994-07-18,83141.0
1994-07-19,83089.0
1994-07-20,83010.0
1994-07-21,82866.0
1994-07-22,82761.0
1994-07-23,82669.0
1994-07-24,82591.0
1994-07-25,82525.0
1994-07-26,82433.0
1994-07-27,82433.0
1994-07-28,82355.0
1994-07-29,82172.0
1994-07-30,82081.0
1994-07-31,81977.0
1994-08-01,81899.0
1994-08-02,81873.0
1994-08-03,81743.0
1994-08-04,81665.0
1994-08-05,81574.0
1994-08-06,81470.0
1994-08-07,81379.0
1994-08-08,81301.0
1994-08-09,81211.0
1994-08-10,81211.0
1994-08-11,81172.0
1994-08-12,81121.0
1994-08-13,81069.0
1994-08-14,80991.0
1994-08-15,80940.0
1994-08-16,80875.0
1994-08-17,80798.0
1994-08-18,80733.0
1994-08-19,80669.0
1994-08-20,80669.0
1994-08-21,80656.0
1994-08-22,80630.0
1994-08-23,80592.0
1994-08-24,80527.0
1994-08-25,80437.0
1994-08-26,80347.0
1994-08-27,80257.0
1994-08-28,80193.0
1994-08-29,80142.0
1994-08-30,80052.0
1994-08-31,79962.0
1994-09-01,81917.27
1994-09-02,81804.42
1994-09-03,81741.87
1994-09-04,81678.7
1994-09-05,81591.0
1994-09-06,81503.3
1994-09-07,81427.87
1994-09-08,81389.84
1994-09-09,81352.44
1994-09-10,81302.15
1994-09-11,81251.86
1994-09-12,81214.45
1994-09-13,81189.3
1994-09-14,81164.16
1994-09-15,81126.13
1994-09-16,81126.13
1994-09-17,81151.28
1994-09-18,81164.16
1994-09-19,81176.42
1994-09-20,81201.57
1994-09-21,81201.57
1994-09-22,81214.45
1994-09-23,81201.57
1994-09-24,81201.57
1994-09-25,81201.57
1994-09-26,81201.57
1994-09-27,81189.3
1994-09-28,81176.42
1994-09-29,81164.16
1994-09-30,81226.71
1994-10-01,81251.86
1994-10-02,81251.86
1994-10-03,81314.41
1994-10-04,81377.58
1994-10-05,81578.73
1994-10-06,81779.28
1994-10-07,81892.73
1994-10-08,82030.73
1994-10-09,82131.3
1994-10-10,82231.6
1994-10-11,82309.07
1994-10-12,82373.95
1994-10-13,82438.2
1994-10-14,82515.67
1994-10-15,82722.27
1994-10-16,82876.6
1994-10-17,82979.9
1994-10-18,83199.1
1994-10-19,83379.88
1994-10-20,83547.81
1994-10-21,83665.52
1994-10-22,83769.85
1994-10-23,83913.01
1994-10-24,84043.44
1994-10-25,84186.59
1994-10-26,84355.82
1994-10-27,84486.25
1994-10-28,84603.32
1994-10-29,84694.94
1994-10-30,84759.83
1994-10-31,84812.0
1994-11-01,84891.09
1994-11-02,85062.16
1994-11-03,85167.62
1994-11-04,85246.71
1994-11-05,85312.3
1994-11-06,85470.5
1994-11-07,85615.19
1994-11-08,85773.38
1994-11-09,85878.84
1994-11-10,85944.44
1994-11-11,86049.91
1994-11-12,86222.01
1994-11-13,86395.66
1994-11-14,86475.01
1994-11-15,86528.34
1994-11-16,86622.0
1994-11-17,86768.34
1994-11-18,86955.0
1994-11-19,87181.34
1994-11-20,87234.66
1994-11-21,87341.33
1994-11-22,87447.99
1994-11-23,87487.93
1994-11-24,87554.91
1994-11-25,87716.47
1994-11-26,87918.09
1994-11-27,87998.87
1994-11-28,88160.43
1994-11-29,88295.05
1994-11-30,88375.84
1994-12-01,88469.75
1994-12-02,88604.38
1994-12-03,88779.07
1994-12-04,88860.41
1994-12-05,88996.45
1994-12-06,89213.44
1994-12-07,89390.61
1994-12-08,89445.02
1994-12-09,89485.5
1994-12-10,89512.7
1994-12-11,89621.53
1994-12-12,89770.84
1994-12-13,89879.66
1994-12-14,90056.17
1994-12-15,90137.8
1994-12-16,90274.95
1994-12-17,90357.41
1994-12-18,90453.27
1994-12-19,90549.15
1994-12-20,90618.2
1994-12-21,90755.63
1994-12-22,90838.09
1994-12-23,90906.48
1994-12-24,91057.31
1994-12-25,91194.75
1994-12-26,91318.11
1994-12-27,91524.59
1994-12-28,91607.03
1994-12-29,91676.73
1994-12-30,91773.52
1994-12-31,91843.22
1995-01-01,91912.25
1995-01-02,91925.78
1995-01-03,92023.23
1995-01-04,92078.73
1995-01-05,92161.97
1995-01-06,92272.28
1995-01-07,92383.27
1995-01-08,92508.47
1995-01-09,92632.99
1995-01-10,92799.48
1995-01-11,93008.14
1995-01-12,93120.33
1995-01-13,93204.48
1995-01-14,93315.98
1995-01-15,93582.77
1995-01-16,93792.78
1995-01-17,93904.98
1995-01-18,94016.48
1995-01-19,94114.98
1995-01-20,94199.13
1995-01-21,94296.95
1995-01-22,94353.3
1995-01-23,94423.73
1995-01-24,94508.66
1995-01-25,94720.62
1995-01-26,94735.12
1995-01-27,94820.04
1995-01-28,94933.27
1995-01-29,95088.62
1995-01-30,95159.04
1995-01-31,95286.77
1995-02-01,95399.31
1995-02-02,95455.92
1995-02-03,95527.04
1995-02-04,95752.95
1995-02-05,95881.94
1995-02-06,95996.29
1995-02-07,96082.05
1995-02-08,96195.71
1995-02-09,96296.12
1995-02-10,96395.83
1995-02-11,96552.71
1995-02-12,96781.41
1995-02-13,96881.12
1995-02-14,97067.29
1995-02-15,97181.09
1995-02-16,97267.76
1995-02-17,97398.11
1995-02-18,97585.52
1995-02-19,97744.06
1995-02-20,97830.73
1995-02-21,97946.27
1995-02-22,98148.49
1995-02-23,98278.14
1995-02-24,98407.78
1995-02-25,98639.12
1995-02-26,98813.9
1995-02-27,99017.09
1995-02-28,99220.98
1995-03-01,99409.97
1995-03-02,99613.87
1995-03-03,99788.63
1995-03-04,100094.43
1995-03-05,100255.93
1995-03-06,100520.79
1995-03-07,100638.5
1995-03-08,100726.79
1995-03-09,100917.72
1995-03-10,101108.64
1995-03-11,101772.67
1995-03-12,102766.84
1995-03-13,103378.88
1995-03-14,103917.95
1995-03-15,104397.05
1995-03-16,104909.51
1995-03-17,105529.25
1995-03-18,106165.02
1995-03-19,107004.21
1995-03-20,107876.34
1995-03-21,108600.47
1995-03-22,109357.06
1995-03-23,110009.62
1995-03-24,110615.89
1995-03-25,111211.62
1995-03-26,111557.14
1995-03-27,111949.39
1995-03-28,112090.36
1995-03-29,112200.68
1995-03-30,112153.18
1995-03-31,111964.72
1995-04-01,112169.27
1995-04-02,112389.91
1995-04-03,112896.97
1995-04-04,113229.34
1995-04-05,113703.93
1995-04-06,114166.51
1995-04-07,114805.55
1995-04-08,115445.05
1995-04-09,116058.59
1995-04-10,116509.88
1995-04-11,117058.46
1995-04-12,117449.32
1995-04-13,117856.07
1995-04-14,118246.14
1995-04-15,118817.4
1995-04-16,119211.86
1995-04-17,119688.1
1995-04-18,119901.38
1995-04-19,120147.52
1995-04-20,120461.05
1995-04-21,120610.73
1995-04-22,120677.07
1995-04-23,120709.43
1995-04-24,120775.77
1995-04-25,120808.95
1995-04-26,120892.28
1995-04-27,120941.64
1995-04-28,121156.85
1995-04-29,121505.57
1995-04-30,121736.97
1995-05-01,122237.07
1995-05-02,122704.59
1995-05-03,123623.47
1995-05-04,124247.48
1995-05-05,124736.49
1995-05-06,125391.84
1995-05-07,126092.84
1995-05-08,126552.14
1995-05-09,127113.75
1995-05-10,127697.42
1995-05-11,128245.91
1995-05-12,129349.3
1995-05-13,130265.83
1995-05-14,131224.14
1995-05-15,132026.31
1995-05-16,132956.86
1995-05-17,134048.55
1995-05-18,134776.16
1995-05-19,135716.0
1995-05-20,136521.4
1995-05-21,137613.28
1995-05-22,138280.61
1995-05-23,139835.0
1995-05-24,141601.16
1995-05-25,142371.77
1995-05-26,143844.53
1995-05-27,144731.05
1995-05-28,145511.97
1995-05-29,146293.44
1995-05-30,147097.44
1995-05-31,147866.89
1995-06-01,149128.33
1995-06-02,151119.27
1995-06-03,154185.05
1995-06-04,156182.06
1995-06-05,158293.69
1995-06-06,160922.61
1995-06-07,163798.05
1995-06-08,165837.05
1995-06-09,167952.31
1995-06-10,169839.05
1995-06-11,171573.64
1995-06-12,173757.9
1995-06-13,175664.94
1995-06-14,177925.61
1995-06-15,179776.28
1995-06-16,181510.7
1995-06-17,183168.45
1995-06-18,184685.78
1995-06-19,186232.9
1995-06-20,187610.66
1995-06-21,188644.66
1995-06-22,190654.38
1995-06-23,192254.4
1995-06-24,193503.9
1995-06-25,195388.98
1995-06-26,197014.66
1995-06-27,198715.52
1995-06-28,200265.2
1995-06-29,201640.56
1995-06-30,202720.64
1995-07-01,204061.08
1995-07-02,205194.34
1995-07-03,206591.94
1995-07-04,208555.58
1995-07-05,210011.33
1995-07-06,211051.34
1995-07-07,211949.39
1995-07-08,212471.0
1995-07-09,212900.0
1995-07-10,213066.25
1995-07-11,213447.58
1995-07-12,214399.75
1995-07-13,214853.02
1995-07-14,214949.03
1995-07-15,215093.06
1995-07-16,215141.06
1995-07-17,215141.06
1995-07-18,215141.06
1995-07-19,215189.06
1995-07-20,215308.5
1995-07-21,215068.47
1995-07-22,214853.02
1995-07-23,214709.0
1995-07-24,214638.08
1995-07-25,214566.0
1995-07-26,214399.75
1995-07-27,214042.83
1995-07-28,213804.5
1995-07-29,213589.42
1995-07-30,213327.83
1995-07-31,212994.17
1995-08-01,212827.92
1995-08-02,212684.92
1995-08-03,212566.33
1995-08-04,212446.58
1995-08-05,212375.67
1995-08-06,212257.6
1995-08-07,212186.02
1995-08-08,212138.7
1995-08-09,212020.95
1995-08-10,211973.62
1995-08-11,211973.62
1995-08-12,211973.62
1995-08-13,211973.62
1995-08-14,212044.05
1995-08-15,211949.39
1995-08-16,211713.92
1995-08-17,211547.7
1995-08-18,211335.31
1995-08-19,211122.92
1995-08-20,210909.38
1995-08-21,210767.39
1995-08-22,210672.73
1995-08-23,210578.1
1995-08-24,210531.92
1995-08-25,210484.6
1995-08-26,210389.94
1995-08-27,210223.72
1995-08-28,210011.33
1995-08-29,209800.12
1995-08-30,209541.12
1995-08-31,209260.36
1995-09-01,209072.42
1995-09-02,208884.47
1995-09-03,208720.6
1995-09-04,208532.66
1995-09-05,208461.6
1995-09-06,208226.67
1995-09-07,208180.83
1995-09-08,208133.84
1995-09-09,208062.8
1995-09-10,207945.9
1995-09-11,207851.92
1995-09-12,207710.97
1995-09-13,207663.98
1995-09-14,207523.7
1995-09-15,207314.38
1995-09-16,207057.25
1995-09-17,206801.27
1995-09-18,206545.3
1995-09-19,206429.25
1995-09-20,206382.6
1995-09-21,206242.67
1995-09-22,206125.48
1995-09-23,206056.08
1995-09-24,205962.8
1995-09-25,205846.75
1995-09-26,205776.2
1995-09-27,205706.81
1995-09-28,205660.17
1995-09-29,205636.27
1995-09-30,205613.52
1995-10-01,205613.52
1995-10-02,205589.62
1995-10-03,205589.62
1995-10-04,205589.62
1995-10-05,205636.27
1995-10-06,205636.27
1995-10-07,205800.1
1995-10-08,205822.86
1995-10-09,205846.75
1995-10-10,205753.45
1995-10-11,205846.75
1995-10-12,205800.1
1995-10-13,205776.2
1995-10-14,205800.1
1995-10-15,205822.86
1995-10-16,205846.75
1995-10-17,205892.25
1995-10-18,205892.25
1995-10-19,205916.14
1995-10-20,205916.14
1995-10-21,205938.9
1995-10-22,205962.8
1995-10-23,205962.8
1995-10-24,206009.44
1995-10-25,206056.08
1995-10-26,206125.48
1995-10-27,206172.12
1995-10-28,206196.02
1995-10-29,206265.42
1995-10-30,206312.06
1995-10-31,206474.75
1995-11-01,206429.25
1995-11-02,206429.25
1995-11-03,206429.25
1995-11-04,206429.25
1995-11-05,206452.0
1995-11-06,206498.64
1995-11-07,206498.64
1995-11-08,206545.3
1995-11-09,206638.58
1995-11-10,206847.92
1995-11-11,206871.81
1995-11-12,207011.75
1995-11-13,207150.55
1995-11-14,207221.08
1995-11-15,207361.02
1995-11-16,207594.25
1995-11-17,207686.9
1995-11-18,207851.92
1995-11-19,208062.8
1995-11-20,208156.77
1995-11-21,208226.67
1995-11-22,208391.69
1995-11-23,208532.66
1995-11-24,208673.61
1995-11-25,208837.48
1995-11-26,209025.42
1995-11-27,209189.31
1995-11-28,209330.27
1995-11-29,209494.14
1995-11-30,209706.16
1995-12-01,209847.11
1995-12-02,210105.98
1995-12-03,210200.62
1995-12-04,210342.61
1995-12-05,210578.1
1995-12-06,210814.72
1995-12-07,211004.02
1995-12-08,211169.1
1995-12-09,211335.31
1995-12-10,211500.38
1995-12-11,211666.6
1995-12-12,211878.98
1995-12-13,212210.27
1995-12-14,212304.92
1995-12-15,212375.67
1995-12-16,212518.67
1995-12-17,212709.33
1995-12-18,212852.33
1995-12-19,213018.58
1995-12-20,213184.83
1995-12-21,213232.5
1995-12-22,213256.92
1995-12-23,213280.17
1995-12-24,213304.58
1995-12-25,213352.25
1995-12-26,213423.17
1995-12-27,213495.25
1995-12-28,213661.5
1995-12-29,213780.08
1995-12-30,213947.5
1995-12-31,214256.75
1996-01-01,214304.42
1996-01-02,214375.33
1996-01-03,214423.0
1996-01-04,214566.0
1996-01-05,214638.08
1996-01-06,214901.03
1996-01-07,215020.45
1996-01-08,215260.5
1996-01-09,215331.92
1996-01-10,215427.94
1996-01-11,215500.53
1996-01-12,215596.55
1996-01-13,215667.97
1996-01-14,215715.97
1996-01-15,215763.98
1996-01-16,215860.0
1996-01-17,216459.5
1996-01-18,216530.92
1996-01-19,216770.95
1996-01-20,216914.97
1996-01-21,216987.56
1996-01-22,217107.0
1996-01-23,217372.31
1996-01-24,217542.12
1996-01-25,217807.44
1996-01-26,217904.14
1996-01-27,218024.42
1996-01-28,218338.08
1996-01-29,218434.78
1996-01-30,218652.94
1996-01-31,218869.9
1996-02-01,219014.94
1996-02-02,219086.88
1996-02-03,219183.56
1996-02-04,219305.03
1996-02-05,219450.06
1996-02-06,219570.67
1996-02-07,219716.67
1996-02-08,219935.08
1996-02-09,220057.34
1996-02-10,220227.08
1996-02-11,220299.5
1996-02-12,220373.1
1996-02-13,220494.16
1996-02-14,220616.42
1996-02-15,220761.23
1996-02-16,220858.58
1996-02-17,221175.5
1996-02-18,221345.25
1996-02-19,221442.58
1996-02-20,221783.25
1996-02-21,222025.94
1996-02-22,222345.22
1996-02-23,222516.22
1996-02-24,222761.36
1996-02-25,222981.39
1996-02-26,223153.58
1996-02-27,223226.53
1996-02-28,223348.5
1996-02-29,223471.67
1996-03-01,223789.75
1996-03-02,224107.83
1996-03-03,224280.03
1996-03-04,224451.34
1996-03-05,224672.81
1996-03-06,224919.55
1996-03-07,225166.3
1996-03-08,225363.69
1996-03-09,225486.45
1996-03-10,225658.58
1996-03-11,225881.23
1996-03-12,226053.36
1996-03-13,226448.14
1996-03-14,226817.66
1996-03-15,226994.6
1996-03-16,227226.03
1996-03-17,227353.62
1996-03-18,227583.81
1996-03-19,227994.12
1996-03-20,228199.3
1996-03-21,228455.73
1996-03-22,228737.2
1996-03-23,229223.84
1996-03-24,229622.8
1996-03-25,229840.22
1996-03-26,229985.55
1996-03-27,230202.97
1996-03-28,230396.77
1996-03-29,230807.97
1996-03-30,231026.58
1996-03-31,231292.45
1996-04-01,231486.23
1996-04-02,232100.84
1996-04-03,232528.38
1996-04-04,232704.05
1996-04-05,233282.67
1996-04-06,233711.44
1996-04-07,234062.78
1996-04-08,234871.89
1996-04-09,235655.73
1996-04-10,236795.62
1996-04-11,238172.0
1996-04-12,239472.06
1996-04-13,240679.11
1996-04-14,241680.6
1996-04-15,242169.12
1996-04-16,242401.2
1996-04-17,244002.95
1996-04-18,244778.61
1996-04-19,245741.28
1996-04-20,246157.86
1996-04-21,246495.67
1996-04-22,247198.0
1996-04-23,247485.52
1996-04-24,248166.6
1996-04-25,248820.84
1996-04-26,249395.88
1996-04-27,250315.31
1996-04-28,251342.92
1996-04-29,251948.69
1996-04-30,252979.72
1996-05-01,254012.67
1996-05-02,254781.56
1996-05-03,256113.53
1996-05-04,257474.89
1996-05-05,258841.73
1996-05-06,260587.58
1996-05-07,262371.3
1996-05-08,263399.2
1996-05-09,264812.6
1996-05-10,266064.03
1996-05-11,267295.78
1996-05-12,268719.28
1996-05-13,270206.53
1996-05-14,271585.06